User: anonymous   Login
Location: Unspecified
(39.0670°S, 0.0000°E)
Time: 09:14:07
(UTC+00:00)
Language:

Envisat - Orbit

View from above orbital plane
View from above orbital plane
View from above satellite
View from above satellite

Ground track
Ground track

The orbit data is extracted from the following two-line orbital elements,

1 27386U 02009A   19198.05842771 -.00000012  00000-0  94528-5 0  9996
2 27386  98.1478 217.6330 0001393  94.9027 323.5181 14.37952681910272
Epoch (UTC): 17 July 2019 01:24:08
Eccentricity: 0.0001393
inclination: 98.1478°
perigee height: 764 km
apogee height: 766 km
right ascension of ascending node: 217.6330°
argument of perigee: 94.9027°
revolutions per day: 14.37952681
mean anomaly at epoch: 323.5181°
orbit number at epoch: 91027

The dashed part of the orbit path shows where the satellite is in the earth's shadow,  

DLR